Content
SEND FEEDBACK

Daily
Averages
Monthly
Summary
United States of America

COVINGTON, VIRGINIA


Home > North America > United States > Virginia
Elevation: 1395 feet     Latitude: 37 48N     Longitude: 080 00W

WEATHER
 
SELECT A DAY
Number of Records: 453,256;   Date Range: 1/1/95 - 9/16/14
 
SHARE

PRINT THIS DATA

[ ← Previous Day ]
WEATHER ALMANAC - APRIL 1, 2014
[ Next Day → ]
[ °C ]   °F
Weather ElementAverageHighLow
Temperature55.1 °F66.2 °F (4:35 pm)44.6 °F (6:15 am)
Dewpoint29 °F37.4 °F (12:15 pm)23 °F (12:35 am)
Humidity37.4 %48 % (12:15 pm)24 % (5:55 pm)
Barometer30.15 in30.20 in (8:55 am)30.08 in (4:15 pm)
Wind Speed10.2 mph24.2 mph (2:55 pm)
Wind Gust31.1 mph (6:15 pm)
Weather ElementAverage
Visibility6.2 mi
Wind DirectionSW (225.6 °)

Weather ElementTotal
Precipitation---
Heating Degree Days9.6 (Base 65)
Growing Degree Days5.4 (Base 50)
Averaged from 71 records on April 1, 2014
WEATHER CONDITIONS BREAKOUT
WIND DIRECTION BREAKOUT
WEATHER BY HOUR - APRIL 1, 2014
[ °C ]   °F
Local TimeTemperatureDewpointHumidityBarometerVisibilityWind DirectionWind SpeedGust SpeedPrecipitationEventsConditions
12:35 AM48.2 °F23.0 °F37 %30.18 in5.0 miSSE (150°)3.5 mphHaze
12:55 AM48.2 °F23.0 °F37 %30.17 in5.0 miSSE (150°)5.8 mphHaze
1:15 AM46.4 °F23.0 °F40 %30.17 in5.0 miSSE (150°)3.5 mphHaze
1:35 AM48.2 °F23.0 °F37 %30.17 in7.0 miCalmClear
1:55 AM48.2 °F23.0 °F37 %30.16 in7.0 miSE (130°)4.6 mphClear
2:15 AM46.4 °F23.0 °F40 %30.16 in5.0 miSSE (150°)3.5 mphHaze
2:30 AM48.2 °F23.0 °F37 %30.16 in7.0 miSouth (170°)4.6 mphClear
2:55 AM48.2 °F24.8 °F40 %30.15 in5.0 miSouth (170°)6.9 mphHaze
3:15 AM48.2 °F24.8 °F40 %30.15 in5.0 miSouth (170°)5.8 mphHaze
3:35 AM48.2 °F24.8 °F40 %30.15 in7.0 miSouth (170°)5.8 mphClear
3:55 AM46.4 °F24.8 °F43 %30.15 in7.0 miSSE (160°)5.8 mphClear
4:15 AM46.4 °F23.0 °F40 %30.15 in7.0 miSSE (160°)5.8 mphClear
4:35 AM46.4 °F23.0 °F40 %30.14 in7.0 miSSE (160°)6.9 mphClear
4:55 AM46.4 °F23.0 °F40 %30.15 in5.0 miSouth (180°)8.1 mphHaze
5:15 AM46.4 °F23.0 °F40 %30.15 in7.0 miSouth (170°)9.2 mphClear
5:35 AM46.4 °F23.0 °F40 %30.15 in7.0 miSouth (180°)8.1 mphClear
5:50 AM46.4 °F23.0 °F40 %30.16 in7.0 miSouth (180°)9.2 mphClear
6:15 AM44.6 °F23.0 °F43 %30.16 in7.0 miSouth (190°)9.2 mphClear
6:35 AM46.4 °F23.0 °F40 %30.16 in7.0 miSouth (180°)10.4 mphClear
6:55 AM46.4 °F23.0 °F40 %30.17 in7.0 miSSW (200°)9.2 mph17.3 mphScattered Clouds
7:15 AM46.4 °F23.0 °F40 %30.18 in7.0 miSouth (190°)10.4 mph16.1 mphOvercast
7:35 AM46.4 °F23.0 °F40 %30.18 in7.0 miSSW (200°)12.7 mphMostly Cloudy
7:55 AM48.2 °F23.0 °F37 %30.19 in7.0 miSouth (190°)11.5 mph16.1 mph
8:15 AM48.2 °F23.0 °F37 %30.19 in7.0 miSSW (200°)8.1 mphScattered Clouds
8:35 AM48.2 °F23.0 °F37 %30.19 in5.0 miSSW (210°)6.9 mphHaze
8:55 AM48.2 °F24.8 °F40 %30.20 in7.0 miWSW (240°)12.7 mphScattered Clouds
9:15 AM48.2 °F26.6 °F43 %30.19 in7.0 miWSW (250°)9.2 mphScattered Clouds
9:35 AM51.8 °F26.6 °F38 %30.19 in7.0 miSW (230°)9.2 mphScattered Clouds
9:55 AM50.0 °F28.4 °F43 %30.20 in7.0 miWSW (250°)8.1 mphScattered Clouds
10:15 AM48.2 °F28.4 °F46 %30.20 in5.0 miWSW (250°)11.5 mphHaze
10:35 AM51.8 °F28.4 °F41 %30.19 in7.0 miSW (230°)11.5 mphScattered Clouds
10:55 AM51.8 °F30.2 °F44 %30.17 in7.0 miSW (220°)5.8 mphClear
11:15 AM55.4 °F33.8 °F44 %30.16 in10.0 miSW (230°)8.1 mphScattered Clouds
11:35 AM55.4 °F33.8 °F44 %30.16 in7.0 miWSW (250°)15.0 mphScattered Clouds
11:55 AM55.4 °F35.6 °F47 %30.15 in7.0 miWSW (250°)11.5 mph20.7 mphClear
12:15 PM57.2 °F37.4 °F48 %30.15 in10.0 miWSW (250°)12.7 mphClear
12:30 PM57.2 °F37.4 °F48 %30.14 in7.0 miWSW (250°)12.7 mphClear
12:55 PM57.2 °F37.4 °F48 %30.14 in7.0 miWest (270°)10.4 mph20.7 mphClear
1:10 PM59.0 °F37.4 °F45 %30.13 in10.0 miWSW (240°)13.8 mphClear
1:35 PM60.8 °F37.4 °F42 %30.12 in7.0 miWSW (250°)11.5 mphClear
1:55 PM62.6 °F37.4 °F39 %30.11 in7.0 miWSW (250°)18.4 mph25.3 mphClear
2:15 PM62.6 °F37.4 °F39 %30.11 in10.0 miWSW (250°)19.6 mph25.3 mphClear
2:35 PM62.6 °F37.4 °F39 %30.11 in7.0 miWSW (250°)16.1 mph28.8 mphClear
2:55 PM62.6 °F37.4 °F39 %30.10 in7.0 miWest (260°)24.2 mph29.9 mphClear
3:15 PM64.4 °F37.4 °F37 %30.10 in7.0 miWest (270°)15.0 mph24.2 mphClear
3:35 PM64.4 °F37.4 °F37 %30.10 in7.0 miWSW (250°)15.0 mph21.9 mphClear
3:50 PM64.4 °F35.6 °F34 %30.09 in7.0 miWest (280°)16.1 mph25.3 mphClear
4:15 PM64.4 °F35.6 °F34 %30.08 in7.0 miWest (260°)12.7 mph24.2 mphClear
4:35 PM66.2 °F32.0 °F28 %30.08 in5.0 miWest (260°)16.1 mph29.9 mphHaze
4:55 PM66.2 °F30.2 °F26 %30.08 in5.0 miWest (260°)12.7 mph21.9 mphHaze
5:15 PM66.2 °F30.2 °F26 %30.08 in4.0 miWest (260°)10.4 mph23.0 mphHaze
5:35 PM66.2 °F32.0 °F28 %30.09 in3.0 miWest (260°)13.8 mph25.3 mphHaze
5:55 PM66.2 °F28.4 °F24 %30.09 in4.0 miWest (270°)18.4 mph24.2 mphHaze
6:15 PM64.4 °F28.4 °F26 %30.10 in4.0 miWest (280°)15.0 mph31.1 mphHaze
6:35 PM64.4 °F28.4 °F26 %30.11 in4.0 miWest (280°)16.1 mph25.3 mphHaze
6:55 PM64.4 °F30.2 °F28 %30.11 in4.0 miWest (270°)11.5 mph25.3 mphHaze
7:15 PM62.6 °F30.2 °F30 %30.12 in4.0 miWest (260°)11.5 mph21.9 mphHaze
7:35 PM62.6 °F30.2 °F30 %30.12 in4.0 miWest (260°)9.2 mph17.3 mphHaze
7:55 PM60.8 °F30.2 °F31 %30.14 in4.0 miWest (270°)8.1 mphHaze
8:15 PM60.8 °F30.2 °F31 %30.14 in7.0 miWest (270°)6.9 mphClear
8:35 PM59.0 °F30.2 °F34 %30.15 in7.0 miWest (270°)8.1 mphClear
8:55 PM60.8 °F30.2 °F31 %30.15 in7.0 miWSW (250°)8.1 mphClear
9:15 PM59.0 °F30.2 °F34 %30.15 in5.0 miWest (260°)8.1 mphHaze
9:35 PM59.0 °F32.0 °F36 %30.16 in5.0 miWest (260°)9.2 mphHaze
9:55 PM59.0 °F32.0 °F36 %30.16 in5.0 miWest (260°)9.2 mphHaze
10:15 PM59.0 °F30.2 °F34 %30.16 in5.0 miWest (260°)10.4 mphHaze
10:35 PM59.0 °F30.2 °F34 %30.16 in4.0 miWest (270°)9.2 mphHaze
10:55 PM59.0 °F30.2 °F34 %30.16 in5.0 miWest (280°)10.4 mphHaze
11:15 PM59.0 °F30.2 °F34 %30.16 in4.0 miWest (280°)9.2 mphHaze
11:35 PM57.2 °F30.2 °F36 %30.16 in7.0 miWest (270°)10.4 mphClear
11:55 PM57.2 °F30.2 °F36 %30.16 in7.0 miWest (270°)9.2 mphClear
Hourly data recorded from KHSP, located miles away from Covington, Virginia







STORIES FROM OUR PARTNERS